CCA8302 ZYHB-ZSPD

Flight info

Callsign CCA8302
Flight time 2h 33m
Altitude 38100
Route DUK19D DUKIR W655 NIMEM W205 NULRA A588 UDETI W106 MAKNO W5 TAO/K0841S1130 DCT URBAD W172 LATUX W108 MATNU W115 PINOT
Aircraft B38M/M-SDE1FGHILORVWXY/HB1

Departure

Time 2026-05-03 22:32
Airport Harbin Taiping International Airport (ZYHB)

Arrival

Time 2026-05-04 01:05
Airport Shanghai Pudong International Airport (ZSPD)
Time Latitude Longitude Altitude Speed Heading
2026-05-03 22:15 45.61579 126.23421 467 ft 0 kts 309°
2026-05-03 22:23 45.61571 126.23436 466 ft 3 kts 309°
2026-05-03 22:24 45.61560 126.23455 466 ft 2 kts 308°
2026-05-03 22:24 45.61550 126.23478 467 ft 3 kts 284°
2026-05-03 22:24 45.61550 126.23503 467 ft 3 kts 245°
2026-05-03 22:24 45.61561 126.23525 467 ft 3 kts 222°
2026-05-03 22:25 45.61572 126.23539 463 ft 1 kts 219°
2026-05-03 22:25 45.61575 126.23543 467 ft 0 kts 219°
2026-05-03 22:27 45.61568 126.23534 462 ft 4 kts 219°
2026-05-03 22:27 45.61526 126.23485 467 ft 11 kts 219°
2026-05-03 22:28 45.61464 126.23413 467 ft 12 kts 219°
2026-05-03 22:28 45.61402 126.23366 468 ft 9 kts 171°
2026-05-03 22:28 45.61356 126.23428 466 ft 7 kts 128°
2026-05-03 22:28 45.61349 126.23439 467 ft 2 kts 129°
2026-05-03 22:29 45.61348 126.23441 468 ft 0 kts 129°
2026-05-03 22:29 45.61345 126.23447 468 ft 3 kts 130°
2026-05-03 22:29 45.61309 126.23490 467 ft 8 kts 143°
2026-05-03 22:30 45.61267 126.23537 466 ft 9 kts 135°
2026-05-03 22:30 45.61251 126.23628 467 ft 11 kts 85°
2026-05-03 22:30 45.61262 126.23730 466 ft 9 kts 73°
2026-05-03 22:30 45.61285 126.23781 468 ft 0 kts 39°
2026-05-03 22:31 45.61290 126.23787 468 ft 9 kts 40°
2026-05-03 22:31 45.61564 126.24107 464 ft 90 kts 39°
2026-05-03 22:31 45.62237 126.24894 460 ft 156 kts 39°
2026-05-03 22:31 45.63153 126.25972 855 ft 175 kts 39°
2026-05-03 22:32 45.64147 126.27025 1617 ft 182 kts 30°
2026-05-03 22:32 45.65258 126.27936 2416 ft 184 kts 27°
2026-05-03 22:32 45.66483 126.28534 2993 ft 192 kts
2026-05-03 22:32 45.67873 126.28254 3273 ft 216 kts 334°
2026-05-03 22:33 45.69131 126.26946 3748 ft 233 kts 318°
2026-05-03 22:33 45.70387 126.25424 4507 ft 237 kts 320°
2026-05-03 22:33 45.71660 126.23925 5400 ft 238 kts 320°
2026-05-03 22:33 45.72952 126.22414 6214 ft 241 kts 321°
2026-05-03 22:34 45.74258 126.20890 6995 ft 245 kts 318°
2026-05-03 22:34 45.75253 126.18872 7432 ft 262 kts 292°
2026-05-03 22:34 45.75859 126.16350 8043 ft 270 kts 290°
2026-05-03 22:34 45.76468 126.13802 8867 ft 272 kts 290°
2026-05-03 22:35 45.77078 126.11222 9658 ft 275 kts 290°
2026-05-03 22:35 45.77692 126.08597 10315 ft 281 kts 290°
2026-05-03 22:35 45.78173 126.05785 10603 ft 303 kts 274°
2026-05-03 22:35 45.77833 126.02719 10846 ft 326 kts 250°
2026-05-03 22:36 45.76529 125.99959 11170 ft 346 kts 224°
2026-05-03 22:36 45.74606 125.97800 11672 ft 356 kts 220°
2026-05-03 22:36 45.72682 125.95595 12302 ft 360 kts 221°
2026-05-03 22:36 45.70717 125.93325 13012 ft 365 kts 221°
2026-05-03 22:37 45.68735 125.91025 13703 ft 369 kts 221°
2026-05-03 22:37 45.66733 125.88699 14350 ft 372 kts 221°
2026-05-03 22:37 45.64716 125.86357 15036 ft 375 kts 222°
2026-05-03 22:37 45.62678 125.83993 15720 ft 379 kts 222°
2026-05-03 22:38 45.60620 125.81606 16424 ft 382 kts 222°
2026-05-03 22:38 45.58546 125.79204 17100 ft 385 kts 223°
2026-05-03 22:38 45.56450 125.76781 17764 ft 389 kts 223°
2026-05-03 22:38 45.54364 125.74371 18355 ft 392 kts 223°
2026-05-03 22:39 45.52234 125.71914 18943 ft 395 kts 223°
2026-05-03 22:39 45.50086 125.69436 19512 ft 397 kts 223°
2026-05-03 22:39 45.47924 125.66945 20078 ft 400 kts 223°
2026-05-03 22:39 45.45693 125.64548 20630 ft 406 kts 214°
2026-05-03 22:40 45.43056 125.63018 21262 ft 415 kts 197°
2026-05-03 22:40 45.40181 125.62668 21809 ft 425 kts 179°
2026-05-03 22:40 45.37260 125.63520 22362 ft 433 kts 164°
2026-05-03 22:40 45.34394 125.64919 22868 ft 437 kts 164°
2026-05-03 22:41 45.31508 125.66327 23408 ft 438 kts 164°
2026-05-03 22:41 45.28611 125.67755 23827 ft 441 kts 164°
2026-05-03 22:41 45.25702 125.69195 24256 ft 443 kts 164°
2026-05-03 22:41 45.22783 125.70640 24693 ft 445 kts 165°
2026-05-03 22:42 45.19848 125.72092 25148 ft 447 kts 165°
2026-05-03 22:42 45.16902 125.73548 25541 ft 449 kts 165°
2026-05-03 22:42 45.13980 125.74991 25937 ft 452 kts 165°
2026-05-03 22:42 45.10999 125.76461 26328 ft 454 kts 165°
2026-05-03 22:43 45.08009 125.77934 26757 ft 455 kts 165°
2026-05-03 22:43 45.05001 125.79414 27126 ft 458 kts 165°
2026-05-03 22:43 45.02012 125.80884 27486 ft 460 kts 166°
2026-05-03 22:43 44.98974 125.82375 27860 ft 462 kts 166°
2026-05-03 22:44 44.95921 125.83872 28250 ft 464 kts 166°
2026-05-03 22:44 44.92866 125.85367 28579 ft 466 kts 166°
2026-05-03 22:44 44.89785 125.86874 28919 ft 469 kts 166°
2026-05-03 22:44 44.86692 125.88384 29243 ft 471 kts 166°
2026-05-03 22:45 44.83585 125.89899 29611 ft 473 kts 166°
2026-05-03 22:45 44.80465 125.91420 29891 ft 475 kts 166°
2026-05-03 22:45 44.77373 125.92911 30222 ft 474 kts 168°
2026-05-03 22:45 44.74181 125.93705 30590 ft 460 kts 185°
2026-05-03 22:46 44.71037 125.93392 31028 ft 450 kts 192°
2026-05-03 22:46 44.67921 125.92846 31315 ft 451 kts 193°
2026-05-03 22:46 44.64813 125.92234 31665 ft 450 kts 194°
2026-05-03 22:46 44.61724 125.91592 32035 ft 448 kts 194°
2026-05-03 22:47 44.58645 125.90931 32465 ft 446 kts 194°
2026-05-03 22:47 44.55576 125.90263 32802 ft 446 kts 194°
2026-05-03 22:47 44.52523 125.89596 33151 ft 445 kts 195°
2026-05-03 22:47 44.49459 125.88926 33502 ft 444 kts 195°
2026-05-03 22:48 44.46418 125.88262 33897 ft 442 kts 195°
2026-05-03 22:48 44.43412 125.87606 34148 ft 442 kts 195°
2026-05-03 22:48 44.40367 125.86942 34423 ft 442 kts 195°
2026-05-03 22:48 44.37324 125.86279 34703 ft 441 kts 195°
2026-05-03 22:49 44.34292 125.85620 35023 ft 440 kts 195°
2026-05-03 22:49 44.31263 125.84962 35278 ft 440 kts 195°
2026-05-03 22:49 44.28245 125.84307 35547 ft 440 kts 195°
2026-05-03 22:49 44.25220 125.83650 35818 ft 439 kts 195°
2026-05-03 22:50 44.22205 125.82997 36131 ft 437 kts 195°
2026-05-03 22:50 44.19204 125.82347 36364 ft 437 kts 195°
2026-05-03 22:50 44.16193 125.81696 36601 ft 437 kts 195°
2026-05-03 22:50 44.13190 125.81076 36840 ft 439 kts 191°
2026-05-03 22:51 44.10105 125.81222 37108 ft 450 kts 175°
2026-05-03 22:51 44.07077 125.82469 37315 ft 460 kts 166°
2026-05-03 22:51 44.04073 125.84020 37451 ft 461 kts 166°
2026-05-03 22:51 44.01105 125.85570 37638 ft 461 kts 166°
2026-05-03 22:52 43.98113 125.87147 37861 ft 459 kts 168°
2026-05-03 22:52 43.95037 125.88106 37858 ft 443 kts 184°
2026-05-03 22:52 43.92020 125.87913 37912 ft 431 kts 193°
2026-05-03 22:53 43.86034 125.86899 37908 ft 432 kts 194°
2026-05-03 22:53 43.80087 125.85728 37903 ft 431 kts 194°
2026-05-03 22:53 43.77203 125.84777 37883 ft 419 kts 208°
2026-05-03 22:54 43.74612 125.83036 37915 ft 416 kts 211°
2026-05-03 22:54 43.69452 125.79487 37912 ft 416 kts 212°
2026-05-03 22:55 43.64305 125.75847 37915 ft 415 kts 212°
2026-05-03 22:55 43.59173 125.72193 37919 ft 414 kts 212°
2026-05-03 22:56 43.54072 125.68565 37920 ft 413 kts 212°
2026-05-03 22:56 43.48966 125.64941 37921 ft 413 kts 212°
2026-05-03 22:57 43.43856 125.61320 37916 ft 412 kts 212°
2026-05-03 22:57 43.38758 125.57715 37926 ft 411 kts 212°
2026-05-03 22:58 43.34526 125.54727 37922 ft 410 kts 212°
2026-05-03 22:58 43.29444 125.51146 37935 ft 410 kts 212°
2026-05-03 22:59 43.24366 125.47574 37927 ft 409 kts 212°
2026-05-03 22:59 43.19300 125.44018 37938 ft 408 kts 212°
2026-05-03 23:00 43.14275 125.40496 37934 ft 407 kts 212°
2026-05-03 23:00 43.09229 125.36967 37941 ft 407 kts 212°
2026-05-03 23:01 43.04196 125.33453 37944 ft 406 kts 212°
2026-05-03 23:01 42.99175 125.29954 37943 ft 405 kts 212°
2026-05-03 23:02 42.94149 125.26459 37947 ft 404 kts 212°
2026-05-03 23:02 42.89168 125.22999 37951 ft 404 kts 212°
2026-05-03 23:03 42.84157 125.19525 37953 ft 403 kts 212°
2026-05-03 23:03 42.79174 125.16026 37959 ft 402 kts 212°
2026-05-03 23:04 42.74206 125.12536 37953 ft 401 kts 212°
2026-05-03 23:04 42.69279 125.09083 37957 ft 400 kts 213°
2026-05-03 23:05 42.64327 125.05617 37966 ft 400 kts 212°
2026-05-03 23:05 42.59368 125.02154 37965 ft 400 kts 212°
2026-05-03 23:06 42.54437 124.98715 37970 ft 400 kts 212°
2026-05-03 23:06 42.49481 124.95265 37964 ft 400 kts 213°
2026-05-03 23:07 42.44528 124.91824 37978 ft 401 kts 213°
2026-05-03 23:07 42.39561 124.88380 37978 ft 400 kts 213°
2026-05-03 23:08 42.34600 124.84945 37978 ft 400 kts 213°
2026-05-03 23:08 42.29639 124.81517 37979 ft 400 kts 213°
2026-05-03 23:09 42.24704 124.78113 37989 ft 401 kts 213°
2026-05-03 23:09 42.19727 124.74685 37982 ft 401 kts 213°
2026-05-03 23:10 42.14745 124.71261 37991 ft 401 kts 213°
2026-05-03 23:10 42.09797 124.67866 37989 ft 401 kts 213°
2026-05-03 23:11 42.04830 124.64464 37988 ft 401 kts 213°
2026-05-03 23:11 41.99847 124.61055 37998 ft 401 kts 213°
2026-05-03 23:12 41.94995 124.57402 38010 ft 400 kts 215°
2026-05-03 23:12 41.90187 124.53725 38008 ft 399 kts 215°
2026-05-03 23:13 41.85345 124.50038 38013 ft 400 kts 215°
2026-05-03 23:13 41.80503 124.46359 38004 ft 400 kts 215°
2026-05-03 23:14 41.75665 124.42690 38010 ft 400 kts 215°
2026-05-03 23:14 41.70812 124.39016 38014 ft 399 kts 215°
2026-05-03 23:15 41.65964 124.35352 38028 ft 400 kts 215°
2026-05-03 23:15 41.61141 124.31714 38015 ft 400 kts 215°
2026-05-03 23:16 41.56278 124.28051 38021 ft 401 kts 215°
2026-05-03 23:16 41.51403 124.24386 38016 ft 401 kts 215°
2026-05-03 23:17 41.46560 124.20750 38024 ft 402 kts 215°
2026-05-03 23:17 41.41683 124.17096 38019 ft 402 kts 214°
2026-05-03 23:18 41.36745 124.13511 38015 ft 403 kts 214°
2026-05-03 23:18 41.31854 124.09964 38022 ft 403 kts 214°
2026-05-03 23:19 41.26936 124.06402 38026 ft 404 kts 214°
2026-05-03 23:19 41.22002 124.02835 38030 ft 403 kts 214°
2026-05-03 23:20 41.17062 123.99270 38029 ft 404 kts 214°
2026-05-03 23:20 41.12125 123.95711 38024 ft 404 kts 214°
2026-05-03 23:21 41.07187 123.92159 38022 ft 404 kts 214°
2026-05-03 23:21 41.02236 123.88604 38037 ft 404 kts 214°
2026-05-03 23:22 40.94839 123.83304 38036 ft 404 kts 214°
2026-05-03 23:22 40.89888 123.79764 38038 ft 404 kts 214°
2026-05-03 23:23 40.84938 123.76229 38039 ft 405 kts 214°
2026-05-03 23:23 40.80040 123.72637 38042 ft 404 kts 215°
2026-05-03 23:24 40.75118 123.69021 38044 ft 405 kts 214°
2026-05-03 23:24 40.70193 123.65411 38065 ft 404 kts 215°
2026-05-03 23:25 40.65297 123.61828 38031 ft 405 kts 214°
2026-05-03 23:25 40.60366 123.58225 38046 ft 405 kts 215°
2026-05-03 23:26 40.55445 123.54626 38052 ft 405 kts 215°
2026-05-03 23:26 40.50512 123.51023 38054 ft 405 kts 214°
2026-05-03 23:27 40.45595 123.47438 38058 ft 406 kts 214°
2026-05-03 23:27 40.40662 123.43846 38052 ft 405 kts 215°
2026-05-03 23:28 40.35715 123.40252 38048 ft 406 kts 215°
2026-05-03 23:28 40.30762 123.36658 38052 ft 406 kts 215°
2026-05-03 23:29 40.25819 123.33078 38059 ft 406 kts 215°
2026-05-03 23:29 40.20911 123.29529 38058 ft 406 kts 215°
2026-05-03 23:30 40.15957 123.25953 38056 ft 406 kts 215°
2026-05-03 23:30 40.11007 123.22386 38057 ft 405 kts 215°
2026-05-03 23:31 40.06052 123.18820 38054 ft 406 kts 215°
2026-05-03 23:31 40.01129 123.15233 38055 ft 405 kts 215°
2026-05-03 23:32 39.96192 123.11640 38059 ft 406 kts 215°
2026-05-03 23:32 39.91214 123.08022 38031 ft 414 kts 215°
2026-05-03 23:33 39.86190 123.04379 38063 ft 418 kts 215°
2026-05-03 23:33 39.81071 123.00672 38072 ft 424 kts 214°
2026-05-03 23:34 39.75874 122.96916 38068 ft 430 kts 214°
2026-05-03 23:34 39.70613 122.93120 38076 ft 435 kts 214°
2026-05-03 23:35 39.65279 122.89277 38067 ft 442 kts 214°
2026-05-03 23:35 39.59860 122.85381 38062 ft 448 kts 214°
2026-05-03 23:36 39.54408 122.81468 38077 ft 452 kts 214°
2026-05-03 23:36 39.48915 122.77533 38075 ft 451 kts 214°
2026-05-03 23:37 39.43418 122.73602 38077 ft 450 kts 214°
2026-05-03 23:37 39.37934 122.69687 38078 ft 450 kts 214°
2026-05-03 23:38 39.32470 122.65793 38086 ft 450 kts 214°
2026-05-03 23:38 39.26991 122.61864 38090 ft 448 kts 218°
2026-05-03 23:39 39.21713 122.57594 38091 ft 447 kts 217°
2026-05-03 23:39 39.16423 122.53375 38091 ft 447 kts 217°
2026-05-03 23:40 39.11122 122.49162 38092 ft 447 kts 217°
2026-05-03 23:40 39.05831 122.44965 38095 ft 447 kts 217°
2026-05-03 23:41 39.00567 122.40798 38098 ft 446 kts 217°
2026-05-03 23:41 38.95270 122.36611 38098 ft 446 kts 217°
2026-05-03 23:42 38.89974 122.32426 38103 ft 446 kts 217°
2026-05-03 23:42 38.84694 122.28246 38105 ft 446 kts 217°
2026-05-03 23:43 38.79442 122.24098 38105 ft 445 kts 217°
2026-05-03 23:43 38.74150 122.19923 38106 ft 445 kts 218°
2026-05-03 23:44 38.71645 122.17646 38100 ft 435 kts 230°
2026-05-03 23:44 38.69757 122.14765 38116 ft 423 kts 244°
2026-05-03 23:44 38.67574 122.07889 38112 ft 418 kts 255°
2026-05-03 23:45 38.65846 122.00793 38118 ft 417 kts 257°
2026-05-03 23:45 38.64218 121.93660 38116 ft 416 kts 257°
2026-05-03 23:46 38.62625 121.86548 38113 ft 416 kts 257°
2026-05-03 23:46 38.61300 121.80634 38115 ft 416 kts 257°
2026-05-03 23:47 38.59446 121.72377 38113 ft 415 kts 257°
2026-05-03 23:47 38.57847 121.65286 38113 ft 415 kts 257°
2026-05-03 23:48 38.56504 121.59344 38113 ft 415 kts 257°
2026-05-03 23:48 38.54911 121.52311 38119 ft 415 kts 257°
2026-05-03 23:49 38.53292 121.45191 38122 ft 415 kts 257°
2026-05-03 23:49 38.51688 121.38158 38125 ft 415 kts 257°
2026-05-03 23:50 38.50073 121.31098 38124 ft 414 kts 257°
2026-05-03 23:50 38.48454 121.24043 38126 ft 414 kts 257°
2026-05-03 23:51 38.46828 121.16981 38135 ft 414 kts 256°
2026-05-03 23:51 38.45643 121.13608 38136 ft 420 kts 242°
2026-05-03 23:51 38.44092 121.10433 38133 ft 422 kts 243°
2026-05-03 23:52 38.41015 121.04056 38145 ft 422 kts 243°
2026-05-03 23:52 38.37894 120.97712 38151 ft 422 kts 243°
2026-05-03 23:53 38.34763 120.91381 38153 ft 422 kts 243°
2026-05-03 23:53 38.31628 120.85054 38156 ft 422 kts 243°
2026-05-03 23:54 38.28488 120.78731 38154 ft 423 kts 243°
2026-05-03 23:54 38.25071 120.72681 38144 ft 431 kts 227°
2026-05-03 23:55 38.22601 120.70464 38160 ft 442 kts 214°
2026-05-03 23:55 38.19850 120.68643 38160 ft 445 kts 213°
2026-05-03 23:55 38.14315 120.65090 38156 ft 446 kts 213°
2026-05-03 23:56 38.08746 120.61612 38166 ft 446 kts 212°
2026-05-03 23:56 38.03140 120.58198 38161 ft 450 kts 206°
2026-05-03 23:57 38.00073 120.57272 38163 ft 461 kts 191°
2026-05-03 23:57 37.96856 120.56960 38162 ft 464 kts 191°
2026-05-03 23:57 37.90443 120.56389 38175 ft 466 kts 190°
2026-05-03 23:58 37.83956 120.55886 38178 ft 465 kts 189°
2026-05-03 23:58 37.77496 120.55400 38172 ft 465 kts 189°
2026-05-03 23:59 37.71031 120.54914 38175 ft 464 kts 189°
2026-05-03 23:59 37.64638 120.54303 38180 ft 460 kts 194°
2026-05-04 00:00 37.58284 120.53301 38181 ft 460 kts 193°
2026-05-04 00:00 37.51927 120.52351 38180 ft 460 kts 193°
2026-05-04 00:01 37.45566 120.51408 38185 ft 460 kts 193°
2026-05-04 00:01 37.39222 120.50469 38180 ft 459 kts 193°
2026-05-04 00:02 37.32891 120.49534 38175 ft 458 kts 193°
2026-05-04 00:02 37.26575 120.48603 38179 ft 457 kts 193°
2026-05-04 00:03 37.20261 120.47673 38185 ft 456 kts 193°
2026-05-04 00:03 37.14002 120.46753 38175 ft 455 kts 193°
2026-05-04 00:04 37.07726 120.45832 38182 ft 454 kts 193°
2026-05-04 00:04 37.01465 120.44916 38188 ft 452 kts 193°
2026-05-04 00:05 36.95210 120.44000 38175 ft 451 kts 193°
2026-05-04 00:05 36.88975 120.43090 38173 ft 451 kts 193°
2026-05-04 00:06 36.82753 120.42183 38185 ft 450 kts 193°
2026-05-04 00:06 36.76532 120.41278 38183 ft 449 kts 194°
2026-05-04 00:07 36.70330 120.40377 38187 ft 449 kts 194°
2026-05-04 00:07 36.64132 120.39478 38185 ft 448 kts 194°
2026-05-04 00:08 36.57962 120.38584 38191 ft 448 kts 194°
2026-05-04 00:08 36.51739 120.37907 38199 ft 453 kts 188°
2026-05-04 00:09 36.45432 120.37701 38194 ft 452 kts 189°
2026-05-04 00:09 36.39133 120.37428 38189 ft 452 kts 189°
2026-05-04 00:10 36.32845 120.37147 38198 ft 452 kts 189°
2026-05-04 00:10 36.29671 120.37376 38178 ft 464 kts 175°
2026-05-04 00:10 36.26571 120.38635 38197 ft 478 kts 161°
2026-05-04 00:11 36.20575 120.42364 38193 ft 483 kts 160°
2026-05-04 00:11 36.14593 120.46173 38194 ft 482 kts 161°
2026-05-04 00:12 36.11504 120.47591 38183 ft 465 kts 176°
2026-05-04 00:12 36.08351 120.48062 38211 ft 456 kts 183°
2026-05-04 00:12 36.02050 120.48639 38197 ft 456 kts 184°
2026-05-04 00:13 35.95726 120.49488 38181 ft 468 kts 169°
2026-05-04 00:13 35.89619 120.52602 38184 ft 476 kts 164°
2026-05-04 00:14 35.83536 120.55886 38201 ft 477 kts 163°
2026-05-04 00:14 35.77470 120.59202 38203 ft 476 kts 163°
2026-05-04 00:15 35.71530 120.62760 38211 ft 481 kts 158°
2026-05-04 00:15 35.65685 120.66755 38202 ft 480 kts 159°
2026-05-04 00:16 35.59800 120.70688 38204 ft 480 kts 159°
2026-05-04 00:16 35.53965 120.74574 38207 ft 479 kts 159°
2026-05-04 00:17 35.48074 120.78394 38207 ft 473 kts 165°
2026-05-04 00:17 35.42008 120.81465 38211 ft 471 kts 166°
2026-05-04 00:18 35.35970 120.84463 38211 ft 470 kts 167°
2026-05-04 00:18 35.29904 120.87464 38211 ft 470 kts 167°
2026-05-04 00:19 35.23841 120.90458 38212 ft 470 kts 167°
2026-05-04 00:19 35.17771 120.93451 38209 ft 469 kts 167°
2026-05-04 00:20 35.11711 120.96463 38211 ft 469 kts 167°
2026-05-04 00:20 35.05656 120.99472 38214 ft 469 kts 167°
2026-05-04 00:21 34.99644 121.02454 38208 ft 469 kts 167°
2026-05-04 00:21 34.93597 121.05449 38208 ft 468 kts 168°
2026-05-04 00:22 34.87553 121.08437 38210 ft 468 kts 168°
2026-05-04 00:22 34.81525 121.11414 38209 ft 467 kts 168°
2026-05-04 00:23 34.75530 121.14368 38211 ft 467 kts 168°
2026-05-04 00:23 34.69509 121.17331 38218 ft 467 kts 168°
2026-05-04 00:24 34.63494 121.20287 38214 ft 466 kts 169°
2026-05-04 00:24 34.57500 121.23228 38215 ft 466 kts 169°
2026-05-04 00:25 34.51480 121.26174 38219 ft 465 kts 169°
2026-05-04 00:25 34.45465 121.29119 38219 ft 465 kts 169°
2026-05-04 00:26 34.39452 121.32055 38219 ft 465 kts 169°
2026-05-04 00:26 34.33490 121.34962 38219 ft 464 kts 169°
2026-05-04 00:27 34.27493 121.37881 38218 ft 464 kts 169°
2026-05-04 00:27 34.21491 121.40799 38213 ft 464 kts 170°
2026-05-04 00:28 34.15508 121.43702 38225 ft 463 kts 170°
2026-05-04 00:28 34.09565 121.46582 38214 ft 463 kts 170°
2026-05-04 00:29 34.03590 121.49473 38226 ft 462 kts 170°
2026-05-04 00:29 33.97625 121.52355 38224 ft 462 kts 170°
2026-05-04 00:30 33.91661 121.55231 38226 ft 461 kts 170°
2026-05-04 00:30 33.85698 121.58103 38222 ft 460 kts 171°
2026-05-04 00:31 33.79743 121.60968 38222 ft 460 kts 171°
2026-05-04 00:31 33.73831 121.63808 38225 ft 459 kts 171°
2026-05-04 00:32 33.67888 121.66708 38220 ft 460 kts 170°
2026-05-04 00:32 33.61956 121.69606 38223 ft 460 kts 171°
2026-05-04 00:33 33.53107 121.73910 38220 ft 459 kts 171°
2026-05-04 00:34 33.47189 121.76784 38224 ft 459 kts 171°
2026-05-04 00:34 33.41277 121.79672 38230 ft 458 kts 171°
2026-05-04 00:34 33.38316 121.81116 37895 ft 458 kts 171°
2026-05-04 00:35 33.36365 121.82066 37597 ft 456 kts 171°
2026-05-04 00:35 33.33439 121.83492 37196 ft 451 kts 171°
2026-05-04 00:35 33.30544 121.84900 36835 ft 447 kts 171°
2026-05-04 00:35 33.26734 121.86751 36357 ft 445 kts 171°
2026-05-04 00:36 33.23865 121.88144 36004 ft 445 kts 171°
2026-05-04 00:36 33.21926 121.89085 35763 ft 445 kts 171°
2026-05-04 00:36 33.19057 121.90477 35417 ft 444 kts 171°
2026-05-04 00:36 33.16228 121.91848 35083 ft 444 kts 171°
2026-05-04 00:37 33.13362 121.93236 34751 ft 444 kts 171°
2026-05-04 00:37 33.10498 121.94623 34415 ft 443 kts 171°
2026-05-04 00:37 33.07634 121.96008 34082 ft 443 kts 171°
2026-05-04 00:37 33.04772 121.97391 33703 ft 444 kts 171°
2026-05-04 00:38 33.01898 121.98780 33324 ft 446 kts 171°
2026-05-04 00:38 32.99049 122.00154 32955 ft 448 kts 171°
2026-05-04 00:38 32.96156 122.01550 32587 ft 449 kts 171°
2026-05-04 00:38 32.93250 122.02951 32219 ft 451 kts 171°
2026-05-04 00:39 32.90328 122.04358 31863 ft 453 kts 170°
2026-05-04 00:39 32.87398 122.05768 31500 ft 455 kts 170°
2026-05-04 00:39 32.84453 122.07185 31146 ft 457 kts 170°
2026-05-04 00:39 32.81500 122.08604 30797 ft 459 kts 170°
2026-05-04 00:40 32.78533 122.10029 30449 ft 460 kts 169°
2026-05-04 00:40 32.75555 122.11458 30092 ft 462 kts 169°
2026-05-04 00:40 32.72566 122.12892 29686 ft 464 kts 169°
2026-05-04 00:40 32.69566 122.14330 29275 ft 466 kts 169°
2026-05-04 00:41 32.66545 122.15777 28882 ft 468 kts 168°
2026-05-04 00:41 32.63524 122.17222 28494 ft 469 kts 168°
2026-05-04 00:41 32.60526 122.18656 28115 ft 471 kts 168°
2026-05-04 00:41 32.57482 122.20110 27735 ft 472 kts 167°
2026-05-04 00:42 32.54413 122.21576 27353 ft 474 kts 167°
2026-05-04 00:42 32.51347 122.23039 26984 ft 476 kts 167°
2026-05-04 00:42 32.48261 122.24510 26614 ft 478 kts 167°
2026-05-04 00:42 32.45165 122.25985 26254 ft 480 kts 166°
2026-05-04 00:43 32.42065 122.27461 25897 ft 482 kts 166°
2026-05-04 00:43 32.38965 122.28936 25545 ft 474 kts 166°
2026-05-04 00:43 32.35930 122.30378 25213 ft 466 kts 166°
2026-05-04 00:43 32.32935 122.31801 24876 ft 463 kts 166°
2026-05-04 00:44 32.29988 122.33199 24545 ft 461 kts 166°
2026-05-04 00:44 32.27010 122.34612 24214 ft 460 kts 166°
2026-05-04 00:44 32.24034 122.36023 23888 ft 460 kts 166°
2026-05-04 00:44 32.21064 122.37430 23524 ft 459 kts 165°
2026-05-04 00:45 32.18100 122.38832 23122 ft 457 kts 165°
2026-05-04 00:45 32.15180 122.40214 22731 ft 455 kts 165°
2026-05-04 00:45 32.12238 122.41605 22340 ft 453 kts 165°
2026-05-04 00:45 32.09319 122.42984 21959 ft 451 kts 165°
2026-05-04 00:46 32.06406 122.44359 21571 ft 449 kts 165°
2026-05-04 00:46 32.03513 122.45723 21197 ft 447 kts 164°
2026-05-04 00:46 32.00628 122.47084 20827 ft 444 kts 164°
2026-05-04 00:46 31.97796 122.48417 20464 ft 442 kts 164°
2026-05-04 00:47 31.94938 122.49763 20095 ft 440 kts 163°
2026-05-04 00:47 31.92089 122.51103 19737 ft 438 kts 163°
2026-05-04 00:47 31.89261 122.52433 19393 ft 436 kts 163°
2026-05-04 00:47 31.86447 122.53755 19046 ft 434 kts 163°
2026-05-04 00:48 31.83645 122.55070 18703 ft 432 kts 162°
2026-05-04 00:48 31.80896 122.56360 18351 ft 430 kts 162°
2026-05-04 00:48 31.78119 122.57662 17960 ft 428 kts 162°
2026-05-04 00:48 31.75361 122.58954 17566 ft 425 kts 162°
2026-05-04 00:49 31.72619 122.60238 17181 ft 422 kts 162°
2026-05-04 00:49 31.69894 122.61513 16958 ft 420 kts 162°
2026-05-04 00:49 31.67177 122.62783 16931 ft 420 kts 162°
2026-05-04 00:49 31.64498 122.63981 16876 ft 405 kts 163°
2026-05-04 00:50 31.61862 122.65107 16468 ft 399 kts 167°
2026-05-04 00:50 31.59165 122.65543 16062 ft 385 kts 186°
2026-05-04 00:50 31.56582 122.64994 15686 ft 372 kts 204°
2026-05-04 00:50 31.54359 122.63636 15336 ft 359 kts 220°
2026-05-04 00:51 31.52585 122.61649 14964 ft 349 kts 236°
2026-05-04 00:51 31.51265 122.59301 14625 ft 342 kts 242°
2026-05-04 00:51 31.50092 122.56901 14286 ft 337 kts 244°
2026-05-04 00:51 31.48999 122.54488 13942 ft 333 kts 245°
2026-05-04 00:52 31.47954 122.52072 13563 ft 330 kts 246°
2026-05-04 00:52 31.46951 122.49693 13186 ft 328 kts 247°
2026-05-04 00:52 31.45944 122.47272 12792 ft 326 kts 248°
2026-05-04 00:52 31.45034 122.44868 12479 ft 319 kts 258°
2026-05-04 00:53 31.44664 122.42392 12333 ft 306 kts 264°
2026-05-04 00:53 31.44336 122.39971 12195 ft 297 kts 264°
2026-05-04 00:53 31.44019 122.37617 12025 ft 288 kts 264°
2026-05-04 00:53 31.43709 122.35302 11682 ft 287 kts 265°
2026-05-04 00:54 31.43400 122.32991 11340 ft 286 kts 265°
2026-05-04 00:54 31.43091 122.30691 10988 ft 286 kts 265°
2026-05-04 00:54 31.42784 122.28405 10576 ft 284 kts 266°
2026-05-04 00:54 31.42477 122.26120 10137 ft 283 kts 266°
2026-05-04 00:55 31.42172 122.23852 9670 ft 282 kts 266°
2026-05-04 00:55 31.41867 122.21599 9244 ft 279 kts 266°
2026-05-04 00:55 31.41569 122.19392 8824 ft 276 kts 266°
2026-05-04 00:55 31.41271 122.17188 8408 ft 273 kts 266°
2026-05-04 00:56 31.40976 122.15004 8010 ft 270 kts 265°
2026-05-04 00:56 31.40684 122.12843 7581 ft 268 kts 265°
2026-05-04 00:56 31.40393 122.10699 7195 ft 265 kts 265°
2026-05-04 00:56 31.40104 122.08574 6787 ft 263 kts 265°
2026-05-04 00:57 31.39819 122.06479 6334 ft 259 kts 265°
2026-05-04 00:57 31.39535 122.04392 5794 ft 258 kts 265°
2026-05-04 00:57 31.39252 122.02319 5249 ft 257 kts 264°
2026-05-04 00:57 31.38971 122.00260 4711 ft 256 kts 264°
2026-05-04 00:58 31.38690 121.98204 4183 ft 254 kts 264°
2026-05-04 00:58 31.38411 121.96161 3742 ft 254 kts 263°
2026-05-04 00:58 31.38132 121.94123 3458 ft 252 kts 263°
2026-05-04 00:58 31.37858 121.92120 3149 ft 252 kts 263°
2026-05-04 00:59 31.37581 121.90100 2863 ft 250 kts 263°
2026-05-04 00:59 31.37309 121.88125 2743 ft 241 kts 263°
2026-05-04 00:59 31.37048 121.86223 2657 ft 231 kts 263°
2026-05-04 00:59 31.36738 121.84417 2571 ft 222 kts 253°
2026-05-04 01:00 31.36145 121.82807 2568 ft 208 kts 249°
2026-05-04 01:00 31.35581 121.81331 2514 ft 194 kts 249°
2026-05-04 01:00 31.35044 121.79928 2410 ft 183 kts 248°
2026-05-04 01:00 31.34532 121.78603 2230 ft 175 kts 249°
2026-05-04 01:01 31.34047 121.77299 2036 ft 173 kts 248°
2026-05-04 01:01 31.33281 121.76212 2012 ft 180 kts 216°
2026-05-04 01:01 31.32074 121.75789 1961 ft 187 kts 184°
2026-05-04 01:01 31.30777 121.76092 2003 ft 193 kts 166°
2026-05-04 01:02 31.29487 121.76533 2006 ft 193 kts 167°
2026-05-04 01:02 31.28206 121.76995 1998 ft 192 kts 166°
2026-05-04 01:02 31.26936 121.77478 1986 ft 192 kts 166°
2026-05-04 01:02 31.25662 121.77962 1938 ft 190 kts 166°
2026-05-04 01:03 31.24440 121.78426 1735 ft 175 kts 166°
2026-05-04 01:03 31.23356 121.78837 1521 ft 157 kts 166°
2026-05-04 01:03 31.22323 121.79229 1343 ft 156 kts 166°
2026-05-04 01:03 31.21300 121.79617 1126 ft 153 kts 165°
2026-05-04 01:04 31.20286 121.80002 899 ft 153 kts 165°
2026-05-04 01:04 31.19620 121.80257 773 ft 151 kts 164°
2026-05-04 01:04 31.18306 121.80771 505 ft 147 kts 165°
2026-05-04 01:04 31.17329 121.81124 355 ft 146 kts 165°
2026-05-04 01:05 31.16362 121.81490 141 ft 145 kts 165°
2026-05-04 01:05 31.15422 121.81843 30 ft 133 kts 162°
2026-05-04 01:05 31.14692 121.82119 24 ft 78 kts 162°
2026-05-04 01:05 31.14347 121.82250 26 ft 37 kts 162°
2026-05-04 01:06 31.14144 121.82316 25 ft 23 kts 174°
2026-05-04 01:06 31.13980 121.82297 25 ft 25 kts 190°
2026-05-04 01:06 31.13822 121.82265 27 ft 13 kts 188°
2026-05-04 01:06 31.13730 121.82273 27 ft 10 kts 163°
2026-05-04 01:07 31.13683 121.82277 26 ft 6 kts 218°
2026-05-04 01:07 31.13663 121.82224 29 ft 10 kts 252°
2026-05-04 01:07 31.13634 121.82117 28 ft 16 kts 252°
2026-05-04 01:07 31.13596 121.81982 26 ft 19 kts 252°
2026-05-04 01:08 31.13557 121.81840 26 ft 18 kts 252°
2026-05-04 01:08 31.13545 121.81738 26 ft 9 kts 306°
2026-05-04 01:08 31.13584 121.81714 25 ft 11 kts 341°
2026-05-04 01:08 31.13713 121.81664 29 ft 21 kts 342°
2026-05-04 01:09 31.13865 121.81607 25 ft 22 kts 342°
2026-05-04 01:09 31.14016 121.81550 25 ft 23 kts 342°
2026-05-04 01:09 31.14170 121.81491 25 ft 24 kts 342°
2026-05-04 01:09 31.14326 121.81433 28 ft 23 kts 342°
2026-05-04 01:10 31.14481 121.81374 25 ft 24 kts 342°
2026-05-04 01:10 31.14631 121.81317 28 ft 17 kts 343°
2026-05-04 01:10 31.14749 121.81273 25 ft 18 kts 342°
2026-05-04 01:10 31.14820 121.81242 25 ft 8 kts 320°
2026-05-04 01:11 31.14823 121.81176 25 ft 7 kts 252°
2026-05-04 01:11 31.14810 121.81126 28 ft 7 kts 252°
2026-05-04 01:11 31.14791 121.81059 26 ft 10 kts 252°
2026-05-04 01:11 31.14784 121.81001 25 ft 4 kts 267°
2026-05-04 01:12 31.14782 121.80960 25 ft 4 kts 267°
2026-05-04 01:12 31.14782 121.80951 25 ft 0 kts 266°